,,Stat6,,Stat2,,Stat8,,Stat9,,Stat10,,Wind1,,Wind1,
time,status,PA1M_AVG,status,PR1M_SUM,status,RH1M_AVG,status,SR1M_AVG,status,TA1M_AVG,status,W1dAve1m,status,W1sAve1m,
2007-04-29, 00:00:00,VALID,916.87,VALID,0,VALID,100,VALID,-0.0169808,VALID,20.6539,VALID,37,VALID,0.691883,
2007-04-29, 00:01:00,VALID,916.871,VALID,0,VALID,100,VALID,-0.0339617,VALID,20.6179,VALID,37,VALID,1.09413,
2007-04-29, 00:02:00,VALID,916.859,VALID,0,VALID,100,VALID,-0.0339617,VALID,20.6417,VALID,34,VALID,0.97311,
2007-04-29, 00:03:00,VALID,916.876,VALID,0,VALID,100,VALID,0,VALID,20.6374,VALID,44,VALID,0.932478,
2007-04-29, 00:04:00,VALID,916.889,VALID,0,VALID,100,VALID,-0.0339617,VALID,20.6439,VALID,53,VALID,0.225818,
2007-04-29, 00:05:00,VALID,916.882,VALID,0,VALID,100,VALID,0,VALID,20.6539,VALID,54,VALID,0.341146,
2007-04-29, 00:06:01,VALID,916.873,VALID,0,VALID,100,VALID,-0.0169808,VALID,20.6533,VALID,54,VALID,0.105378,
2007-04-29, 00:07:01,VALID,916.863,VALID,0,VALID,100,VALID,0,VALID,20.6504,VALID,54,VALID,0.0848474,
2007-04-29, 00:08:01,VALID,916.882,VALID,0,VALID,100,VALID,-0.0679233,VALID,20.6444,VALID,53,VALID,0.015625,
2007-04-29, 00:09:01,VALID,916.891,VALID,0,VALID,100,VALID,-0.0169808,VALID,20.6314,VALID,53,VALID,0,
2007-04-29, 00:10:00,VALID,916.899,VALID,0,VALID,100,VALID,-0.0169808,VALID,20.6179,VALID,53,VALID,0,
2007-04-29, 00:11:00,VALID,916.898,VALID,0,VALID,100,VALID,-0.0169808,VALID,20.6049,VALID,53,VALID,0,
2007-04-29, 00:12:00,VALID,916.889,VALID,0,VALID,100,VALID,-0.0509425,VALID,20.6079,VALID,53,VALID,0,
2007-04-29, 00:13:00,VALID,916.869,VALID,0,VALID,100,VALID,-0.0169808,VALID,20.6147,VALID,53,VALID,0,
2007-04-29, 00:14:00,VALID,916.847,VALID,0,VALID,100,VALID,-0.0169808,VALID,20.6149,VALID,53,VALID,0,
2007-04-29, 00:15:00,VALID,916.834,VALID,0,VALID,100,VALID,0,VALID,20.6241,VALID,53,VALID,0,
2007-04-29, 00:16:00,VALID,916.833,VALID,0,VALID,100,VALID,-0.0339617,VALID,20.6339,VALID,53,VALID,0.0283918,
2007-04-29, 00:17:00,VALID,916.834,VALID,0,VALID,100,VALID,0,VALID,20.6339,VALID,49,VALID,0.0488281,
2007-04-29, 00:18:01,VALID,916.815,VALID,0,VALID,100,VALID,-0.0339617,VALID,20.6144,VALID,45,VALID,0.156064,
2007-04-29, 00:19:00,VALID,916.805,VALID,0,VALID,100,VALID,-0.0339617,VALID,20.5949,VALID,45,VALID,0.183681,
2007-04-29, 00:20:00,VALID,916.788,VALID,0,VALID,100,VALID,-0.0339617,VALID,20.5592,VALID,38,VALID,1.19453,
2007-04-29, 00:21:00,VALID,916.791,VALID,0,VALID,100,VALID,0,VALID,20.5595,VALID,33,VALID,0.877604,
2007-04-29, 00:22:00,VALID,916.782,VALID,0,VALID,100,VALID,-0.0169808,VALID,20.5465,VALID,15,VALID,0.529726,
2007-04-29, 00:23:00,VALID,916.789,VALID,0,VALID,100,VALID,-0.0169808,VALID,20.5305,VALID,30,VALID,0.749809,
2007-04-29, 00:24:00,VALID,916.781,VALID,0,VALID,100,VALID,-0.0339617,VALID,20.53,VALID,30,VALID,0.477134,
2007-04-29, 00:25:00,VALID,916.773,VALID,0,VALID,100,VALID,-0.0339617,VALID,20.5333,VALID,44,VALID,0.424279,
2007-04-29, 00:26:01,VALID,916.761,VALID,0,VALID,100,VALID,-0.0339617,VALID,20.5365,VALID,43,VALID,0.155692,
2007-04-29, 00:27:00,VALID,916.76,VALID,0,VALID,100,VALID,-0.0339617,VALID,20.5238,VALID,349,VALID,0.351744,
2007-04-29, 00:28:01,VALID,916.758,VALID,0,VALID,100,VALID,0,VALID,20.4943,VALID,347,VALID,0.394159,
2007-04-29, 00:29:00,VALID,916.767,VALID,0,VALID,100,VALID,-0.0169808,VALID,20.4816,VALID,347,VALID,0.0859375,
2007-04-29, 00:30:00,VALID,916.748,VALID,0,VALID,100,VALID,-0.0169808,VALID,20.4556,VALID,347,VALID,0.18892,
2007-04-29, 00:31:00,VALID,916.736,VALID,0,VALID,100,VALID,-0.0169808,VALID,20.4619,VALID,347,VALID,0,
2007-04-29, 00:32:01,VALID,916.716,VALID,0,VALID,100,VALID,0,VALID,20.4719,VALID,24,VALID,0.507086,
2007-04-29, 00:33:00,VALID,916.698,VALID,0,VALID,100,VALID,0,VALID,20.4976,VALID,24,VALID,0.709413,
2007-04-29, 00:34:00,VALID,916.676,VALID,0,VALID,100,VALID,-0.0169808,VALID,20.5135,VALID,38,VALID,0.579033,
2007-04-29, 00:35:01,VALID,916.653,VALID,0,VALID,100,VALID,0,VALID,20.5235,VALID,37,VALID,0.713601,
2007-04-29, 00:36:00,VALID,916.655,VALID,0,VALID,100,VALID,-0.0169808,VALID,20.5368,VALID,42,VALID,0.463914,
2007-04-29, 00:37:00,VALID,916.66,VALID,0,VALID,100,VALID,-0.0339617,VALID,20.5333,VALID,31,VALID,0.202035,
2007-04-29, 00:38:01,VALID,916.646,VALID,0,VALID,100,VALID,-0.0169808,VALID,20.5198,VALID,31,VALID,0.1125,
2007-04-29, 00:39:00,VALID,916.653,VALID,0,VALID,100,VALID,0,VALID,20.517,VALID,31,VALID,0,
2007-04-29, 00:40:00,VALID,916.652,VALID,0,VALID,100,VALID,0,VALID,20.5205,VALID,31,VALID,0.0438262,
2007-04-29, 00:41:01,VALID,916.646,VALID,0,VALID,100,VALID,-0.0169808,VALID,20.5138,VALID,31,VALID,0,
2007-04-29, 00:42:00,VALID,916.633,VALID,0,VALID,100,VALID,0,VALID,20.5173,VALID,31,VALID,0,
2007-04-29, 00:43:00,VALID,916.617,VALID,0,VALID,100,VALID,-0.0339617,VALID,20.5333,VALID,31,VALID,0,
2007-04-29, 00:44:00,VALID,916.59,VALID,0,VALID,100,VALID,-0.0509425,VALID,20.5398,VALID,31,VALID,0,
2007-04-29, 00:45:00,VALID,916.559,VALID,0,VALID,100,VALID,-0.0339617,VALID,20.543,VALID,37,VALID,0.196289,
2007-04-29, 00:46:00,VALID,916.554,VALID,0,VALID,100,VALID,-0.0509425,VALID,20.5268,VALID,46,VALID,0.477493,
2007-04-29, 00:47:01,VALID,916.542,VALID,0,VALID,100,VALID,-0.0679233,VALID,20.5435,VALID,46,VALID,0.637649,
2007-04-29, 00:48:00,VALID,916.523,VALID,0,VALID,100,VALID,-0.0679233,VALID,20.5633,VALID,42,VALID,0.973047,
2007-04-29, 00:49:00,VALID,916.509,VALID,0,VALID,100,VALID,-0.0339617,VALID,20.5592,VALID,42,VALID,0.624628,
2007-04-29, 00:50:00,VALID,916.505,VALID,0,VALID,100,VALID,0.0169808,VALID,20.566,VALID,35,VALID,0.468178,
2007-04-29, 00:51:00,VALID,916.502,VALID,0,VALID,100,VALID,-0.0339617,VALID,20.5819,VALID,32,VALID,0.0418527,
2007-04-29, 00:52:00,VALID,916.497,VALID,0,VALID,100,VALID,-0.0339617,VALID,20.5952,VALID,32,VALID,0.000181686,
2007-04-29, 00:53:00,VALID,916.5,VALID,0,VALID,100,VALID,0,VALID,20.5917,VALID,32,VALID,0.453125,
2007-04-29, 00:54:01,VALID,916.469,VALID,0,VALID,100,VALID,-0.0169808,VALID,20.5719,VALID,38,VALID,0.791602,
2007-04-29, 00:55:00,VALID,916.464,VALID,0,VALID,100,VALID,0,VALID,20.5784,VALID,35,VALID,1.29906,
2007-04-29, 00:56:01,VALID,916.467,VALID,0,VALID,100,VALID,0,VALID,20.5917,VALID,45,VALID,1.14506,
2007-04-29, 00:57:00,VALID,916.452,VALID,0,VALID,100,VALID,0,VALID,20.5952,VALID,39,VALID,0.929506,
2007-04-29, 00:58:01,VALID,916.438,VALID,0,VALID,100,VALID,-0.0339617,VALID,20.5819,VALID,40,VALID,1.03837,
2007-04-29, 00:59:01,VALID,916.425,VALID,0,VALID,100,VALID,-0.0679233,VALID,20.5884,VALID,43,VALID,1.05876,
2007-04-29, 01:00:01,VALID,916.42,VALID,0,VALID,100,VALID,0,VALID,20.5949,VALID,40,VALID,0.836124,
2007-04-29, 01:01:01,VALID,916.425,VALID,0,VALID,100,VALID,-0.0169808,VALID,20.5949,VALID,47,VALID,0.638338,
2007-04-29, 01:02:00,VALID,916.414,VALID,0,VALID,100,VALID,-0.0339617,VALID,20.6019,VALID,32,VALID,0.488281,
2007-04-29, 01:03:01,VALID,916.393,VALID,0,VALID,100,VALID,-0.0169808,VALID,20.6049,VALID,41,VALID,0.791424,
2007-04-29, 01:04:01,VALID,916.378,VALID,0,VALID,100,VALID,0,VALID,20.6014,VALID,38,VALID,0.682776,
2007-04-29, 01:05:01,VALID,916.37,VALID,0,VALID,100,VALID,0,VALID,20.6052,VALID,40,VALID,1.00208,
2007-04-29, 01:06:01,VALID,916.363,VALID,0,VALID,100,VALID,-0.0169808,VALID,20.6214,VALID,43,VALID,0.43679,
2007-04-29, 01:07:01,VALID,916.374,VALID,0,VALID,100,VALID,0,VALID,20.6176,VALID,44,VALID,0.143229,
2007-04-29, 01:08:01,VALID,916.352,VALID,0.2,VALID,100,VALID,0,VALID,20.5982,VALID,33,VALID,0.792969,
2007-04-29, 01:09:00,VALID,916.338,VALID,0,VALID,100,VALID,0.0169808,VALID,20.5947,VALID,35,VALID,1.01207,
2007-04-29, 01:10:00,VALID,916.322,VALID,0,VALID,100,VALID,0,VALID,20.5884,VALID,38,VALID,1.25409,
2007-04-29, 01:11:00,VALID,916.295,VALID,0,VALID,100,VALID,0,VALID,20.5844,VALID,38,VALID,1.13672,
2007-04-29, 01:12:00,VALID,916.266,VALID,0,VALID,100,VALID,0.0169808,VALID,20.5982,VALID,35,VALID,0.893601,
2007-04-29, 01:13:00,VALID,916.25,VALID,0,VALID,100,VALID,-0.0339617,VALID,20.553,VALID,3,VALID,1.04688,
2007-04-29, 01:14:00,VALID,916.225,VALID,0,VALID,100,VALID,-0.0509425,VALID,20.517,VALID,40,VALID,0.72311,
2007-04-29, 01:15:00,VALID,916.225,VALID,0,VALID,100,VALID,-0.0339617,VALID,20.5203,VALID,28,VALID,0.638579,
2007-04-29, 01:16:00,VALID,916.219,VALID,0,VALID,100,VALID,0,VALID,20.5016,VALID,36,VALID,1.16113,
2007-04-29, 01:17:00,VALID,916.224,VALID,0,VALID,100,VALID,-0.0339617,VALID,20.4976,VALID,18,VALID,0.355945,
2007-04-29, 01:18:00,VALID,916.228,VALID,0,VALID,100,VALID,-0.0509425,VALID,20.5076,VALID,18,VALID,0.361842,
2007-04-29, 01:19:00,VALID,916.206,VALID,0,VALID,100,VALID,0,VALID,20.5008,VALID,30,VALID,0.252344,
2007-04-29, 01:20:00,VALID,916.193,VALID,0,VALID,100,VALID,-0.0509425,VALID,20.5011,VALID,26,VALID,0.905134,
2007-04-29, 01:21:00,VALID,916.176,VALID,0,VALID,100,VALID,-0.0169808,VALID,20.5111,VALID,19,VALID,0.690549,
2007-04-29, 01:22:00,VALID,916.171,VALID,0,VALID,100,VALID,-0.0339617,VALID,20.5016,VALID,20,VALID,0.517113,
2007-04-29, 01:23:00,VALID,916.149,VALID,0,VALID,100,VALID,-0.0339617,VALID,20.4686,VALID,29,VALID,0.819196,
2007-04-29, 01:24:00,VALID,916.139,VALID,0,VALID,100,VALID,-0.0169808,VALID,20.4656,VALID,28,VALID,0.389881,
2007-04-29, 01:25:00,VALID,916.123,VALID,0,VALID,100,VALID,-0.0169808,VALID,20.4621,VALID,28,VALID,0.389027,
2007-04-29, 01:26:00,VALID,916.115,VALID,0,VALID,100,VALID,-0.0169808,VALID,20.4586,VALID,78,VALID,0.28032,
2007-04-29, 01:27:00,VALID,916.09,VALID,0,VALID,100,VALID,-0.0339617,VALID,20.4197,VALID,178,VALID,0.796494,
2007-04-29, 01:28:00,VALID,916.098,VALID,0,VALID,100,VALID,0,VALID,20.4232,VALID,42,VALID,0.199405,
2007-04-29, 01:29:00,VALID,916.099,VALID,0,VALID,100,VALID,-0.0339617,VALID,20.4327,VALID,42,VALID,0.0945513,
2007-04-29, 01:30:00,VALID,916.1,VALID,0,VALID,100,VALID,-0.0509425,VALID,20.4267,VALID,42,VALID,0.162246,
2007-04-29, 01:31:00,VALID,916.086,VALID,0,VALID,100,VALID,0,VALID,20.4199,VALID,34,VALID,0.5625,
2007-04-29, 01:32:00,VALID,916.072,VALID,0,VALID,100,VALID,0,VALID,20.4132,VALID,6,VALID,0.568945,
2007-04-29, 01:33:00,VALID,916.081,VALID,0,VALID,100,VALID,-0.0339617,VALID,20.391,VALID,29,VALID,1.09286,
2007-04-29, 01:34:00,VALID,916.065,VALID,0,VALID,100,VALID,-0.0509425,VALID,20.398,VALID,16,VALID,0.410342,
2007-04-29, 01:35:00,VALID,916.066,VALID,0,VALID,100,VALID,-0.0169808,VALID,20.3945,VALID,331,VALID,0.420732,
2007-04-29, 01:36:00,VALID,916.044,VALID,0,VALID,100,VALID,-0.0169808,VALID,20.398,VALID,16,VALID,0.259961,
2007-04-29, 01:37:00,VALID,916.054,VALID,0,VALID,100,VALID,-0.0169808,VALID,20.391,VALID,17,VALID,0.0247093,
2007-04-29, 01:38:00,VALID,916.063,VALID,0,VALID,100,VALID,-0.0509425,VALID,20.3877,VALID,303,VALID,0.64226,
2007-04-29, 01:39:00,VALID,916.053,VALID,0,VALID,100,VALID,-0.0679233,VALID,20.3715,VALID,208,VALID,0.338368,
2007-04-29, 01:40:00,VALID,916.046,VALID,0,VALID,100,VALID,-0.0679233,VALID,20.3685,VALID,207,VALID,0.302782,
2007-04-29, 01:41:00,VALID,916.034,VALID,0,VALID,100,VALID,-0.0339617,VALID,20.3321,VALID,219,VALID,0.353659,
2007-04-29, 01:42:00,VALID,916.021,VALID,0,VALID,100,VALID,-0.0339617,VALID,20.3458,VALID,228,VALID,0.045277,
2007-04-29, 01:43:00,VALID,916.028,VALID,0,VALID,100,VALID,-0.0339617,VALID,20.3483,VALID,228,VALID,0.0570494,
2007-04-29, 01:44:00,VALID,916.016,VALID,0,VALID,100,VALID,-0.118866,VALID,20.3788,VALID,228,VALID,0.119913,
2007-04-29, 01:45:00,VALID,915.976,VALID,0,VALID,100,VALID,-0.152827,VALID,20.3953,VALID,228,VALID,0.0864826,
2007-04-29, 01:46:00,VALID,915.965,VALID,0,VALID,100,VALID,-0.118866,VALID,20.3985,VALID,305,VALID,0.433685,
2007-04-29, 01:47:00,VALID,915.946,VALID,0,VALID,100,VALID,-0.135847,VALID,20.412,VALID,12,VALID,0.401708,
2007-04-29, 01:48:00,VALID,915.941,VALID,0,VALID,100,VALID,-0.101885,VALID,20.412,VALID,13,VALID,0.00223214,
2007-04-29, 01:49:00,VALID,915.918,VALID,0,VALID,100,VALID,-0.118866,VALID,20.402,VALID,35,VALID,0.216273,
2007-04-29, 01:50:00,VALID,915.905,VALID,0,VALID,100,VALID,-0.135847,VALID,20.4018,VALID,43,VALID,0.211846,
2007-04-29, 01:51:00,VALID,915.892,VALID,0,VALID,100,VALID,-0.118866,VALID,20.3985,VALID,19,VALID,0.244474,
2007-04-29, 01:52:00,VALID,915.881,VALID,0,VALID,100,VALID,-0.152827,VALID,20.3925,VALID,350,VALID,0.952947,
2007-04-29, 01:53:00,VALID,915.865,VALID,0,VALID,100,VALID,-0.118866,VALID,20.3985,VALID,42,VALID,1.08384,
2007-04-29, 01:54:00,VALID,915.84,VALID,0,VALID,100,VALID,-0.101885,VALID,20.3958,VALID,21,VALID,1.54142,
2007-04-29, 01:55:00,VALID,915.838,VALID,0,VALID,100,VALID,-0.135847,VALID,20.3401,VALID,27,VALID,1.3065,
2007-04-29, 01:56:00,VALID,915.808,VALID,0,VALID,100,VALID,-0.118866,VALID,20.3368,VALID,34,VALID,1.0221,
2007-04-29, 01:57:00,VALID,915.785,VALID,0,VALID,100,VALID,-0.118866,VALID,20.3339,VALID,40,VALID,1.05365,
2007-04-29, 01:58:00,VALID,915.766,VALID,0,VALID,100,VALID,-0.152827,VALID,20.3438,VALID,45,VALID,1.18941,
2007-04-29, 01:59:00,VALID,915.764,VALID,0,VALID,100,VALID,0.0169808,VALID,20.351,VALID,40,VALID,0.683681,
2007-04-29, 02:00:00,VALID,915.727,VALID,0,VALID,100,VALID,0,VALID,20.3705,VALID,34,VALID,1.01581,
2007-04-29, 02:01:00,VALID,915.703,VALID,0,VALID,100,VALID,-0.0169808,VALID,20.3443,VALID,28,VALID,0.931548,
2007-04-29, 02:02:00,VALID,915.668,VALID,0,VALID,100,VALID,0.0169808,VALID,20.3473,VALID,46,VALID,0.985156,
2007-04-29, 02:03:00,VALID,915.646,VALID,0,VALID,100,VALID,0.0339617,VALID,20.351,VALID,36,VALID,0.890625,
2007-04-29, 02:04:00,VALID,915.656,VALID,0,VALID,100,VALID,0,VALID,20.351,VALID,32,VALID,0.647372,
2007-04-29, 02:05:00,VALID,915.629,VALID,0,VALID,100,VALID,0.0509425,VALID,20.3475,VALID,22,VALID,0.638338,
2007-04-29, 02:06:00,VALID,915.613,VALID,0,VALID,100,VALID,0.0169808,VALID,20.3378,VALID,30,VALID,0.790483,
2007-04-29, 02:07:00,VALID,915.567,VALID,0,VALID,100,VALID,0.0339617,VALID,20.354,VALID,28,VALID,0.662326,
2007-04-29, 02:08:00,VALID,915.546,VALID,0,VALID,100,VALID,0.0339617,VALID,20.3473,VALID,41,VALID,0.945499,
2007-04-29, 02:09:00,VALID,915.536,VALID,0,VALID,100,VALID,0.0339617,VALID,20.3667,VALID,45,VALID,1.05812,
2007-04-29, 02:10:00,VALID,915.538,VALID,0,VALID,100,VALID,0,VALID,20.377,VALID,42,VALID,1.21389,
2007-04-29, 02:11:00,VALID,915.537,VALID,0,VALID,100,VALID,0,VALID,20.39,VALID,35,VALID,0.951853,
2007-04-29, 02:12:00,VALID,915.53,VALID,0,VALID,100,VALID,0,VALID,20.3964,VALID,34,VALID,0.437314,
2007-04-29, 02:13:00,VALID,915.512,VALID,0,VALID,100,VALID,0,VALID,20.38,VALID,34,VALID,0.17351,
2007-04-29, 02:14:00,VALID,915.487,VALID,0,VALID,100,VALID,0.0339617,VALID,20.36,VALID,36,VALID,0.345279,
2007-04-29, 02:15:00,VALID,915.472,VALID,0,VALID,100,VALID,0.0339617,VALID,20.3338,VALID,42,VALID,0.117746,
2007-04-29, 02:16:00,VALID,915.448,VALID,0,VALID,100,VALID,0.0509425,VALID,20.3148,VALID,45,VALID,0.10026,
2007-04-29, 02:17:00,VALID,915.436,VALID,0,VALID,100,VALID,0.0509425,VALID,20.3013,VALID,44,VALID,0.354353,
2007-04-29, 02:18:00,VALID,915.435,VALID,0,VALID,100,VALID,0.0339617,VALID,20.3145,VALID,38,VALID,0.429688,
2007-04-29, 02:19:00,VALID,915.439,VALID,0,VALID,100,VALID,0.0339617,VALID,20.3245,VALID,31,VALID,0.72066,
2007-04-29, 02:20:00,VALID,915.429,VALID,0,VALID,100,VALID,0.0339617,VALID,20.3338,VALID,42,VALID,0.432351,
2007-04-29, 02:21:00,VALID,915.432,VALID,0,VALID,100,VALID,0.0169808,VALID,20.347,VALID,34,VALID,0.932884,
2007-04-29, 02:22:00,VALID,915.436,VALID,0,VALID,100,VALID,0.0679233,VALID,20.3438,VALID,42,VALID,1.18216,
2007-04-29, 02:23:00,VALID,915.452,VALID,0,VALID,100,VALID,0.0509425,VALID,20.357,VALID,42,VALID,1.17087,
2007-04-29, 02:24:00,VALID,915.443,VALID,0,VALID,100,VALID,0.0509425,VALID,20.37,VALID,47,VALID,1.02656,
2007-04-29, 02:25:00,VALID,915.434,VALID,0,VALID,100,VALID,0.0509425,VALID,20.3605,VALID,36,VALID,0.554506,
2007-04-29, 02:26:00,VALID,915.444,VALID,0,VALID,100,VALID,0.0679233,VALID,20.3273,VALID,19,VALID,0.262109,
2007-04-29, 02:27:00,VALID,915.438,VALID,0,VALID,100,VALID,0.0679233,VALID,20.311,VALID,27,VALID,0.412064,
2007-04-29, 02:28:00,VALID,915.44,VALID,0,VALID,100,VALID,0.0169808,VALID,20.3048,VALID,36,VALID,1,
2007-04-29, 02:29:00,VALID,915.455,VALID,0,VALID,100,VALID,-0.0509425,VALID,20.3228,VALID,40,VALID,0.464236,
2007-04-29, 02:30:00,VALID,915.454,VALID,0,VALID,100,VALID,-0.0169808,VALID,20.3064,VALID,39,VALID,0.39606,
2007-04-29, 02:31:00,VALID,915.446,VALID,0,VALID,100,VALID,-0.101885,VALID,20.3131,VALID,38,VALID,0.659624,
2007-04-29, 02:32:00,VALID,915.43,VALID,0,VALID,100,VALID,-0.101885,VALID,20.3101,VALID,42,VALID,0.709549,
2007-04-29, 02:33:00,VALID,915.416,VALID,0,VALID,100,VALID,-0.0679233,VALID,20.3001,VALID,47,VALID,0.0181686,
2007-04-29, 02:34:00,VALID,915.412,VALID,0,VALID,100,VALID,-0.0679233,VALID,20.2936,VALID,47,VALID,0.162534,
2007-04-29, 02:35:00,VALID,915.415,VALID,0,VALID,100,VALID,-0.0679233,VALID,20.2774,VALID,42,VALID,0.54742,
2007-04-29, 02:36:00,VALID,915.433,VALID,0,VALID,100,VALID,-0.0509425,VALID,20.2579,VALID,37,VALID,0.585938,
2007-04-29, 02:37:00,VALID,915.446,VALID,0,VALID,100,VALID,-0.0169808,VALID,20.2379,VALID,36,VALID,0.360938,
2007-04-29, 02:38:00,VALID,915.446,VALID,0,VALID,100,VALID,-0.0509425,VALID,20.2414,VALID,36,VALID,0.14826,
2007-04-29, 02:39:00,VALID,915.429,VALID,0,VALID,100,VALID,-0.0509425,VALID,20.2282,VALID,36,VALID,0.109776,
2007-04-29, 02:40:00,VALID,915.435,VALID,0,VALID,100,VALID,-0.0849042,VALID,20.2285,VALID,36,VALID,0.473895,
2007-04-29, 02:41:00,VALID,915.439,VALID,0,VALID,100,VALID,-0.101885,VALID,20.2152,VALID,34,VALID,0.148065,
2007-04-29, 02:42:00,VALID,915.424,VALID,0,VALID,100,VALID,-0.0679233,VALID,20.1965,VALID,29,VALID,0.648438,
2007-04-29, 02:43:00,VALID,915.404,VALID,0,VALID,100,VALID,-0.0679233,VALID,20.1768,VALID,322,VALID,0.882068,
2007-04-29, 02:44:00,VALID,915.393,VALID,0,VALID,100,VALID,-0.0849042,VALID,20.1606,VALID,21,VALID,1.05934,
2007-04-29, 02:45:00,VALID,915.362,VALID,0,VALID,100,VALID,-0.0509425,VALID,20.1606,VALID,41,VALID,0.97526,
2007-04-29, 02:46:00,VALID,915.358,VALID,0,VALID,100,VALID,-0.0509425,VALID,20.1668,VALID,29,VALID,0.856286,
2007-04-29, 02:47:00,VALID,915.344,VALID,0,VALID,100,VALID,-0.0339617,VALID,20.1471,VALID,36,VALID,1.18666,
2007-04-29, 02:48:00,VALID,915.356,VALID,0,VALID,100,VALID,-0.0509425,VALID,20.1508,VALID,28,VALID,1.21021,
2007-04-29, 02:49:00,VALID,915.354,VALID,0,VALID,100,VALID,-0.0849042,VALID,20.1484,VALID,27,VALID,0.616097,
2007-04-29, 02:50:00,VALID,915.366,VALID,0,VALID,100,VALID,-0.0169808,VALID,20.1084,VALID,27,VALID,0.536395,
2007-04-29, 02:51:00,VALID,915.359,VALID,0,VALID,100,VALID,-0.0509425,VALID,20.1181,VALID,27,VALID,0.268111,
2007-04-29, 02:52:00,VALID,915.36,VALID,0,VALID,100,VALID,-0.0339617,VALID,20.1116,VALID,27,VALID,0.210392,
2007-04-29, 02:53:00,VALID,915.343,VALID,0,VALID,100,VALID,-0.0509425,VALID,20.1181,VALID,22,VALID,0.606286,
2007-04-29, 02:54:00,VALID,915.34,VALID,0,VALID,100,VALID,-0.0339617,VALID,20.1246,VALID,21,VALID,0.635174,
2007-04-29, 02:55:00,VALID,915.345,VALID,0,VALID,100,VALID,-0.0169808,VALID,20.1341,VALID,32,VALID,0.545201,
2007-04-29, 02:56:00,VALID,915.331,VALID,0,VALID,100,VALID,-0.0509425,VALID,20.1376,VALID,34,VALID,1,
2007-04-29, 02:57:00,VALID,915.335,VALID,0,VALID,100,VALID,-0.0339617,VALID,20.1309,VALID,28,VALID,0.834936,
2007-04-29, 02:58:00,VALID,915.331,VALID,0,VALID,100,VALID,-0.101885,VALID,20.1314,VALID,1,VALID,0.547783,
2007-04-29, 02:59:00,VALID,915.341,VALID,0,VALID,100,VALID,-0.0169808,VALID,20.1244,VALID,344,VALID,0.572856,
2007-04-29, 03:00:00,VALID,915.333,VALID,0,VALID,100,VALID,-0.0169808,VALID,20.1274,VALID,23,VALID,0.588728,
2007-04-29, 03:01:00,VALID,915.32,VALID,0,VALID,100,VALID,0,VALID,20.1471,VALID,30,VALID,0.871094,
2007-04-29, 03:02:00,VALID,915.316,VALID,0,VALID,100,VALID,0,VALID,20.1406,VALID,39,VALID,1.37991,
2007-04-29, 03:03:00,VALID,915.311,VALID,0,VALID,100,VALID,-0.0169808,VALID,20.1401,VALID,35,VALID,0.722202,
2007-04-29, 03:04:00,VALID,915.306,VALID,0,VALID,100,VALID,-0.0169808,VALID,20.1503,VALID,34,VALID,0.796317,
2007-04-29, 03:05:00,VALID,915.281,VALID,0,VALID,100,VALID,-0.0339617,VALID,20.1371,VALID,5,VALID,0.81359,
2007-04-29, 03:06:00,VALID,915.278,VALID,0,VALID,100,VALID,0,VALID,20.1241,VALID,335,VALID,0.497796,
2007-04-29, 03:07:00,VALID,915.265,VALID,0,VALID,100,VALID,-0.0169808,VALID,20.1211,VALID,325,VALID,0.21892,
2007-04-29, 03:08:00,VALID,915.246,VALID,0,VALID,100,VALID,0,VALID,20.1374,VALID,324,VALID,0.389737,
2007-04-29, 03:09:00,VALID,915.243,VALID,0,VALID,100,VALID,0,VALID,20.1374,VALID,317,VALID,0.291969,
2007-04-29, 03:10:00,VALID,915.238,VALID,0,VALID,100,VALID,0,VALID,20.1374,VALID,317,VALID,0.0725446,
2007-04-29, 03:11:00,VALID,915.222,VALID,0,VALID,100,VALID,-0.0169808,VALID,20.1536,VALID,360,VALID,0.601376,
2007-04-29, 03:12:00,VALID,915.221,VALID,0,VALID,100,VALID,-0.0509425,VALID,20.1533,VALID,23,VALID,0.451758,
2007-04-29, 03:13:00,VALID,915.208,VALID,0,VALID,100,VALID,-0.0169808,VALID,20.1668,VALID,35,VALID,0.594494,
2007-04-29, 03:14:00,VALID,915.203,VALID,0,VALID,100,VALID,0,VALID,20.1631,VALID,42,VALID,0.902902,
2007-04-29, 03:15:00,VALID,915.184,VALID,0,VALID,100,VALID,-0.0169808,VALID,20.1633,VALID,43,VALID,0.770579,
2007-04-29, 03:16:00,VALID,915.202,VALID,0,VALID,100,VALID,-0.0509425,VALID,20.1733,VALID,42,VALID,0.753162,
2007-04-29, 03:17:00,VALID,915.219,VALID,0,VALID,100,VALID,-0.0679233,VALID,20.1631,VALID,41,VALID,1.30562,
2007-04-29, 03:18:00,VALID,915.223,VALID,0,VALID,100,VALID,-0.0169808,VALID,20.1631,VALID,37,VALID,1.22979,
2007-04-29, 03:19:00,VALID,915.245,VALID,0,VALID,100,VALID,0,VALID,20.1568,VALID,35,VALID,1.14602,
2007-04-29, 03:20:00,VALID,915.226,VALID,0,VALID,100,VALID,-0.0339617,VALID,20.1468,VALID,41,VALID,1.38746,
2007-04-29, 03:21:00,VALID,915.247,VALID,0,VALID,100,VALID,-0.0509425,VALID,20.1473,VALID,34,VALID,1.50657,
2007-04-29, 03:22:00,VALID,915.238,VALID,0,VALID,100,VALID,-0.0509425,VALID,20.1309,VALID,28,VALID,0.986458,
2007-04-29, 03:23:00,VALID,915.232,VALID,0,VALID,100,VALID,-0.0169808,VALID,20.1114,VALID,27,VALID,0.774926,
2007-04-29, 03:24:00,VALID,915.227,VALID,0,VALID,100,VALID,-0.0509425,VALID,20.1022,VALID,357,VALID,0.799293,
2007-04-29, 03:25:00,VALID,915.227,VALID,0,VALID,100,VALID,-0.0679233,VALID,20.0695,VALID,29,VALID,0.706577,
2007-04-29, 03:26:00,VALID,915.233,VALID,0,VALID,100,VALID,0,VALID,20.066,VALID,7,VALID,0.566497,
2007-04-29, 03:27:00,VALID,915.238,VALID,0,VALID,100,VALID,0,VALID,20.0525,VALID,6,VALID,0.584077,
2007-04-29, 03:28:00,VALID,915.235,VALID,0,VALID,100,VALID,-0.0169808,VALID,20.0625,VALID,36,VALID,1.0787,
2007-04-29, 03:29:00,VALID,915.245,VALID,0,VALID,100,VALID,-0.0169808,VALID,20.0627,VALID,27,VALID,1.4189,
2007-04-29, 03:30:00,VALID,915.237,VALID,0,VALID,100,VALID,0,VALID,20.0595,VALID,19,VALID,0.907203,
2007-04-29, 03:31:00,VALID,915.25,VALID,0,VALID,100,VALID,-0.0169808,VALID,20.043,VALID,21,VALID,0.877668,
2007-04-29, 03:32:00,VALID,915.251,VALID,0,VALID,100,VALID,-0.0339617,VALID,20.04,VALID,10,VALID,0.508168,
2007-04-29, 03:33:00,VALID,915.255,VALID,0,VALID,100,VALID,-0.0339617,VALID,20.0303,VALID,2,VALID,0.229106,
2007-04-29, 03:34:00,VALID,915.265,VALID,0,VALID,100,VALID,-0.0169808,VALID,20.037,VALID,354,VALID,0.670759,
2007-04-29, 03:35:00,VALID,915.276,VALID,0,VALID,100,VALID,0,VALID,20.0238,VALID,359,VALID,0.553961,
2007-04-29, 03:36:00,VALID,915.272,VALID,0,VALID,100,VALID,0,VALID,20.0238,VALID,360,VALID,0.588663,
2007-04-29, 03:37:00,VALID,915.282,VALID,0,VALID,100,VALID,0.0169808,VALID,20.0135,VALID,26,VALID,0.662642,
2007-04-29, 03:38:00,VALID,915.272,VALID,0,VALID,100,VALID,-0.0169808,VALID,20.0038,VALID,28,VALID,0.619549,
2007-04-29, 03:39:00,VALID,915.269,VALID,0,VALID,100,VALID,0,VALID,20.0076,VALID,28,VALID,0.26399,
2007-04-29, 03:40:00,VALID,915.265,VALID,0,VALID,100,VALID,-0.0169808,VALID,19.9908,VALID,28,VALID,0.0197088,
2007-04-29, 03:41:00,VALID,915.274,VALID,0,VALID,100,VALID,0,VALID,19.9913,VALID,45,VALID,0.241508,